{"data":{"norad_id":82798,"intl_designator":"","name":"UNKNOWN","alt_names":[],"object_type":"UNKNOWN","status":"UNKNOWN","operator":null,"country":null,"launch_date":null,"launch_site_code":null,"launch_vehicle":null,"mission":null,"orbit_class":"UNKNOWN","rcs_meters":null,"size_class":null,"mass_kg":null,"dimensions":null,"purposes":[],"wikipedia_slug":null,"has_3d_model":false,"image_url":null,"decayed_at":null,"tle_current":{"epoch":"2026-09-19T10:56:30.858144Z","epoch_age_seconds":108582,"freshness":"FRESH","line1":"1 82798U          26262.45591271  .00001184  00000+0  50666-3 0  9995","line2":"2 82798  82.9509 326.5773 0030149  45.1891 327.5395 14.23972341352311","mean_motion":14.23972341,"eccentricity":0.0030149,"inclination_deg":82.9509,"raan_deg":326.5773,"arg_perigee_deg":45.1891,"mean_anomaly_deg":327.5395,"bstar":0.00050666,"rev_number":35231,"period_min":101.12555971338,"perigee_km":790.27249889553,"apogee_km":833.6272848361,"semimajor_km":7190.0868918658,"source":"CELESTRAK","updated_at":"2026-09-20T09:00:32.439684Z"}}}